Regional Weather Roundup
Issued by NWS

Home | Current Version | Previous Version | Text Only | Print | Product List | Glossary On
Versions: 1 2 3 4 5 6 7 8 9 10 11 12 13 14 15 16 17 18 19 20 21 22 23 24 25 26 27 28 29 30 31 32 33 34 35 36 37 38 39 40 41 42 43 44 45 46 47 48 49 50
000
ASCA44 KEWX 250320
RWRMX

LATIN AMERICA AND CARIBBEAN REGIONAL WEATHER ROUNDUP
NATIONAL WEATHER SERVICE AUSTIN/SAN ANTONIO TX
900 PM CST FRI FEB 24 2017

NOTE: "FAIR" INDICATED FEW OR NO CLOUDS BELOW 12,000 FEET WITH NO
SIGNIFICANT WEATHER AND/OR OBSTRUCTIONS TO VISIBILITY.

BAJA CALIFORNIA

CITY           SKY/WX    TMP DP  RH WIND       PRES   REMARKS
LA PAZ         CLEAR     64  41  42 NE5       30.01R
MEXICALI       CLEAR     61  25  25 CALM      30.11S
S.J. DEL CABO  CLEAR     64  48  55 W12       29.97R
TIJUANA        CLEAR     48  39  71 CALM      30.18R

NORTHWESTERN MEXICO

CITY           SKY/WX    TMP DP  RH WIND       PRES   REMARKS
CULIACAN       CLEAR     70  57  64 W8        29.89R
DURANGO        CLEAR     63  16  16 S7        30.11R
GUAYMAS          N/A    N/A N/A N/A MISG        N/A
HERMOSILLO     CLEAR     66  30  26 CALM      30.03S
CD. JUAREZ     CLEAR     54  32  43 NW12      29.96R
LOS MOCHIS     CLEAR     63  54  72 NW13      29.97R

NORTHEASTERN MEXICO

CITY           SKY/WX    TMP DP  RH WIND       PRES   REMARKS
CHIHUAHUA      CLEAR     61   3  10 W8        30.05R
MONCLOVA         N/A    N/A N/A N/A MISG        N/A
MONTERREY      CLEAR     72  30  21 SE5       29.87R
REYNOSA        CLEAR     72  57  60 E9        29.83R
SALTILLO       CLEAR     63  37  39 CALM      30.08R
TORREON        CLEAR     73   7   7 N2        29.97R
CD. VICTORIA   CLEAR     79  45  29 NE9       29.85R

WESTERN MEXICO

CITY           SKY/WX    TMP DP  RH WIND       PRES   REMARKS
AGUASCALIENTES CLEAR     61   9  12 E7        30.11R
COLIMA         CLEAR     66  63  88 CALM      29.97R
DEL BAJIO      CLEAR     63  28  27 N5        30.16R
GUADALAJARA    CLEAR     68  27  21 CALM      30.06R
MAZATLAN       CLEAR     66  61  82 CALM      29.88R
P. VALLARTA    CLEAR     72  68  88 S8        29.89R
URUAPAN          N/A    N/A N/A N/A MISG        N/A
ZACATECAS      CLEAR     55  10  16 CALM      30.17R

CENTRAL MEXICO

CITY           SKY/WX    TMP DP  RH WIND       PRES   REMARKS
CUERNAVACA       N/A    N/A N/A N/A MISG        N/A
MEXICO CITY    CLEAR     66  23  19 S7        30.20R
MORELIA        CLEAR     61  28  29 SW7       30.13R
POZA RICA      CLEAR     75  52  43 CALM      29.80S
QUERETARO      PTCLDY    61  19  20 NW9       30.16R
S. LUIS POTOSI CLEAR     68   0   6 CALM      30.09R
TAMPICO        CLEAR     77  66  69 NE12      29.78R
TOLUCA         CLEAR     54  25  32 N7        30.30R

SOUTHERN MEXICO

CITY           SKY/WX    TMP DP  RH WIND       PRES   REMARKS
ACAPULCO       CLEAR     77  68  73 W9        29.83R
B. DE HUATULCO CLEAR     75  68  78 CALM      29.91R
OAXACA         CLEAR     72  50  46 S6        30.10R
P. ESCONDIDO     N/A    N/A N/A N/A MISG        N/A
VERACRUZ       CLEAR     75  73  94 CALM      29.77R
ZIHUATANEJO    CLEAR     73  68  83 NE2       29.87R

YUCATAN PENINSULA

CITY           SKY/WX    TMP DP  RH WIND       PRES   REMARKS
CAMPECHE       CLEAR     79  70  73 CALM      29.74R
CANCUN         CLEAR     75  68  78 SE9       29.84R
CHETUMAL       CLEAR     77  70  78 E12       29.81R
CD. DEL CARMEN CLEAR     81  75  83 NE7       29.76R
COZUMEL        CLEAR     70  66  88 SE5       29.87R
MERIDA         CLEAR     77  70  78 NE3       29.81R
MINATITLAN       N/A    N/A N/A N/A MISG        N/A
TAPACHULA      PTCLDY    77  72  83 CALM      29.87R
TUX. GUTIERREZ CLEAR     77  57  50 S7        29.88R
VILLAHERMOSA   CLEAR     72  66  83 CALM      29.76R

CENTRAL AMERICA

CITY           SKY/WX    TMP DP  RH WIND       PRES   REMARKS

CARIBBEAN

CITY           SKY/WX    TMP DP  RH WIND       PRES   REMARKS
ARUBA          PTCLDY    79  72  78 E13       29.89S
KINGSTON       PTCLDY    79  68  69 VRB2      29.89S
NASSAU         PTCLDY    72  66  83 CALM      29.87R
SAN JUAN       PTCLDY    77  68  73 S3        29.98R
SANTO DOMINGO  MOCLDY    79  70  73 S5        29.92S
ST. CROIX      MOCLDY    72  66  83 N6        29.99S
ST. MAARTEN    PTCLDY    79  68  69 E6        29.97S
ST. THOMAS     CLEAR     75  70  83 E5        29.97F

$$




USA.gov is the U.S. government's official web portal to all federal, state and local government web resources and services.